Regional Weather Roundup
Issued by NWS Little Rock, AR

Home | Current Version | Previous Version | Text Only | Print | Product List | Glossary On
Versions: 1 2 3 4 5 6 7 8 9 10 11 12 13 14 15 16 17 18 19 20 21 22 23 24 25 26 27 28 29 30 31 32 33 34 35 36 37 38 39 40 41 42 43 44 45 46 47 48 49 50
000
ASUS44 KLZK 300305
RWRLZK

WEATHER ROUNDUP FOR ARKANSAS
NATIONAL WEATHER SERVICE LITTLE ROCK AR
1000 PM CDT SUN MAR 29 2015

NOTE: "FAIR" INDICATES FEW OR NO CLOUDS BELOW 12,000 FEET WITH NO
SIGNIFICANT WEATHER AND/OR OBSTRUCTIONS TO VISIBILITY.

ARZ001-003-010-029-300400-
NORTHWEST ARKANSAS

CITY           SKY/WX    TMP DP  RH WIND       PRES   REMARKS
FAYETTEVILLE   PTCLDY    48  46  93 CALM      30.14R
FORT SMITH     MOCLDY    62  44  51 N3        30.12R
HARRISON       PTCLDY    54  44  69 W5        30.13R
BENTONVILLE    PTCLDY    48  41  76 CALM      30.14R
ROGERS         CLEAR     52  43  71 CALM      30.14R
SILOAM SPGS    PTCLDY    52  41  66 CALM      30.15R
HIGHFILL       CLEAR     48  42  80 CALM      30.13R
$$

ARZ004-005-016-300400-
NORTH CENTRAL ARKANSAS

CITY           SKY/WX    TMP DP  RH WIND       PRES   REMARKS
BATESVILLE     CLOUDY    61  48  63 CALM      30.06F
FLIPPIN        MOCLDY    59  43  55 CALM      30.11R
MTN HOME       MOCLDY    57  45  64 NW5       30.10R
$$

ARZ040-041-300400-
WEST CENTRAL ARKANSAS

CITY           SKY/WX    TMP DP  RH WIND       PRES   REMARKS
MENA           PTCLDY    68  50  52 N8        30.11R
MOUNT IDA      MOCLDY    65  52  62 CALM      30.07R
$$

ARZ009-017-025-026-028-300400-
NORTHEAST ARKANSAS

CITY           SKY/WX    TMP DP  RH WIND       PRES   REMARKS
CORNING          N/A     54  52  94 N8        30.09S
JONESBORO      LGT RAIN  54  52  93 CALM      30.07R
NEWPORT        CLOUDY    58  54  86 CALM      30.09R
BLYTHEVILLE    CLOUDY    55  50  83 N5        30.08R
$$

ARZ022-023-033-042-044-300400-
CENTRAL ARKANSAS

CITY           SKY/WX    TMP DP  RH WIND       PRES   REMARKS
LITTLE ROCK    CLOUDY    67  48  50 N6        30.08R
N LITTLE ROCK  CLOUDY    65  52  62 N7        30.08R
JACKSONVILLE   CLOUDY    65  54  66 N2        30.07R
SEARCY         CLOUDY    62  54  74 N7        30.09R
HOT SPRINGS    CLOUDY    70  51  51 N6        30.06R
RUSSELLVILLE   MOCLDY    58  53  84 CALM      30.06S
CLINTON        FAIR      57  50  77 CALM      30.10S
$$

ARZ036-300400-
EAST ARKANSAS

CITY           SKY/WX    TMP DP  RH WIND       PRES   REMARKS
WEST MEMPHIS   CLOUDY    59  54  83 NE3       30.05S HAZE
$$

ARZ050-053-066-070-073-300400-
SOUTHWEST ARKANSAS

CITY           SKY/WX    TMP DP  RH WIND       PRES   REMARKS
ARKADELPHIA    MOCLDY    65  62  90 CALM      30.05R
CAMDEN         PTCLDY    72  54  53 MISG      30.06R
TEXARKANA      MOCLDY    70  55  59 SW7       30.06R
EL DORADO      PTCLDY    68  56  65 S7        30.08R
DE QUEEN       CLOUDY    66  58  75 CALM      30.03R
$$

ARZ056-057-069-300400-
SOUTHEAST ARKANSAS

CITY           SKY/WX    TMP DP  RH WIND       PRES   REMARKS
PINE BLUFF     CLOUDY    66  57  72 S3        30.04R
STUTTGART      MOCLDY    63  55  77 NW7       30.05R
MONTICELLO     MOCLDY    70  57  63 SW7       30.06R

$$




USA.gov is the U.S. government's official web portal to all federal, state and local government web resources and services.